Back to catalog

DELTA 1 DEB

AliveSSO
NORAD 21356·DEBRIS·🇺🇸 United States

Launched Jun 12, 1975 from Vandenberg Space Force Base

Loading…

Next Passes (next 24 hours)

TLE

FreshSource: Space-Track

Epoch: Sep 13, 2026, 18:01 UTC

1 21356U 75052CA  26256.75120803  .00000052  00000-0  19131-3 0  9998
2 21356  99.7205 169.9196 0093642  69.6333 357.0593 13.30801859713984

Track DELTA 1 DEB in real time with AllMySat

Download on the App Store